Wind_Speed
29 25 22 21 21 19 15 12 13 17 20 23 25 27 30 34 39 43 46 50 50 48 46 46 46 45 44 44 45 47 50 51 52 53 52 51 51 52 54 55 58 61 63 63 63 63 62 62 62 61 61 62 61 60 60 60 61 61 61 60 60 59 60 60 60 59 59 60 62 65 66 67 68 68 67 64 61 57 55 56 58 59 59 59 60 60
31 26 23 22 21 19 15 10 10 13 15 17 19 20 24 28 33 37 41 45 47 48 46 47 48 46 44 44 45 47 49 51 53 54 54 53 53 53 53 54 57 61 63 64 65 65 65 65 64 64 64 64 64 63 62 62 62 63 64 63 63 63 63 64 64 63 63 62 64 66 68 69 70 71 71 69 67 64 61 59 60 61 62 62 62 62
31 27 23 21 21 19 15 11 8 9 10 12 14 15 19 23 27 31 34 39 42 44 46 48 50 49 47 47 46 46 48 50 52 53 54 55 55 55 55 55 57 60 62 63 64 66 66 67 67 67 67 67 67 67 66 66 66 67 67 67 67 67 67 67 68 67 67 66 66 67 70 71 72 73 73 73 71 69 68 66 64 63 63 65 66 66
31 28 24 22 21 20 17 13 10 7 5 7 8 10 14 18 21 24 28 32 35 38 41 45 48 49 49 49 48 47 47 48 49 52 54 55 56 56 57 57 58 61 62 64 64 65 66 68 69 70 71 71 71 71 70 69 70 72 72 72 71 71 71 71 71 71 71 70 70 70 71 73 75 75 75 75 75 74 73 72 70 68 66 66 67 68
32 30 26 23 23 23 21 18 14 10 7 4 5 6 10 13 16 19 22 25 27 29 33 37 42 46 48 49 50 49 48 48 48 49 51 54 55 57 59 60 60 61 62 64 65 65 66 67 69 71 73 74 75 74 74 73 73 75 76 76 76 75 75 75 75 76 76 76 75 75 75 75 77 78 78 78 78 78 77 76 75 73 71 70 68 69
32 31 28 25 24 25 25 24 21 16 12 8 4 2 5 8 11 13 15 16 18 20 24 28 33 39 44 48 50 51 51 50 50 49 50 52 54 56 58 59 61 61 62 63 64 65 65 66 68 70 72 75 76 77 77 76 76 77 78 79 80 80 79 79 79 80 81 81 82 81 80 79 79 80 81 82 82 81 81 81 79 78 76 74 73 71
32 32 31 28 26 26 27 28 27 23 19 14 9 5 3 2 6 9 10 11 11 12 15 19 23 29 35 41 47 50 52 52 52 51 51 52 53 55 57 59 60 61 61 62 63 63 64 65 66 68 71 73 75 77 78 78 79 79 80 81 82 83 83 83 83 84 84 85 86 86 86 85 84 83 84 84 85 85 85 84 84 82 80 79 78 76
32 33 32 30 28 27 27 27 29 29 26 21 15 11 8 5 1 5 6 8 8 8 10 13 16 20 25 32 38 44 48 50 52 52 52 53 54 56 58 59 61 62 62 62 62 63 64 64 65 67 69 71 74 76 77 78 79 81 82 83 84 85 86 86 87 87 87 88 88 89 89 90 90 89 88 87 87 88 88 88 87 86 84 83 82 81
31 32 32 31 30 29 28 28 28 29 29 28 24 18 14 10 5 1 3 6 7 9 10 11 12 15 18 23 28 34 39 43 47 50 52 53 55 56 58 60 62 63 64 64 64 64 64 65 66 68 70 72 74 76 77 79 80 81 82 84 85 87 88 89 89 89 90 90 91 91 92 92 93 93 92 92 92 92 92 92 91 90 89 88 87 86
30 31 31 32 31 31 30 30 29 28 28 29 28 25 21 17 11 6 2 3 6 9 10 11 12 14 16 19 22 25 29 33 37 41 45 48 50 53 55 58 61 63 64 65 65 66 66 66 68 70 72 74 75 77 78 79 81 82 83 84 86 87 89 91 91 92 92 92 93 94 94 95 95 95 95 96 96 96 96 96 96 95 94 93 92 91
29 29 30 31 31 31 31 31 31 29 28 27 26 26 25 23 20 15 9 4 4 6 9 11 13 14 17 19 19 21 22 24 27 30 33 37 40 42 46 50 54 57 58 60 61 64 66 66 67 69 72 74 77 79 80 81 82 84 85 86 86 88 90 92 93 94 94 95 96 97 98 98 98 98 98 98 98 99 99 99 99 98 98 97 96 96
27 28 29 30 31 31 31 31 31 31 30 28 26 25 24 24 23 21 18 13 8 5 5 7 9 12 14 17 18 17 17 17 18 20 23 26 29 32 36 40 43 46 48 50 51 54 58 60 62 66 68 70 73 77 79 81 82 85 86 87 87 88 90 92 93 94 95 96 97 98 99 100 100 100 101 101 101 101 101 101 101 101 101 100 100 100
25 26 27 28 29 30 31 31 32 32 32 31 29 27 25 23 22 21 20 18 16 12 8 5 4 6 7 10 12 12 11 10 10 12 15 18 21 24 27 29 32 34 36 38 38 40 44 47 51 58 61 63 66 70 72 75 77 80 82 84 86 87 89 90 91 93 94 95 97 98 99 99 100 100 101 101 101 102 103 102 102 102 102 102 103 103
23 25 26 26 27 28 29 30 31 32 32 31 31 30 28 26 23 21 19 18 17 15 13 11 8 7 5 4 5 6 6 7 5 5 7 10 12 15 17 19 21 23 25 26 26 28 32 35 39 44 49 53 57 60 64 67 70 73 75 76 78 80 82 83 85 87 89 91 92 93 94 95 95 96 97 97 98 98 99 99 100 101 101 101 102 102
22 23 24 24 25 26 27 29 29 30 30 30 30 30 30 28 26 24 22 20 18 16 14 12 10 9 8 6 5 4 5 7 6 4 4 6 8 10 13 13 14 16 17 18 19 21 23 26 29 32 35 39 43 48 52 56 59 62 65 67 69 71 73 74 76 79 81 84 86 86 86 86 87 87 88 88 89 89 90 90 91 92 93 94 94 95
22 22 23 22 22 23 25 26 27 28 28 28 29 29 29 28 27 27 26 24 23 20 17 14 12 11 10 10 9 7 7 9 9 7 6 6 8 10 11 11 12 14 15 15 17 18 19 22 24 24 25 27 31 35 40 44 48 51 54 57 60 62 64 66 69 71 73 75 76 76 76 75 75 75 76 76 77 77 78 78 78 78 79 80 81 82
20 21 22 21 20 21 22 24 25 26 27 26 26 27 26 26 26 26 26 25 25 23 21 19 17 15 14 13 12 12 12 13 14 12 10 9 9 10 11 11 11 13 15 14 15 18 18 19 22 21 20 22 24 26 30 34 37 41 44 47 50 53 55 58 60 63 65 66 66 66 66 65 65 65 66 67 67 67 67 67 66 66 66 66 68 68
19 19 21 20 18 19 19 21 23 23 24 25 25 24 24 24 23 23 24 24 24 24 23 21 20 18 17 16 15 15 15 16 18 18 17 16 14 13 13 13 12 13 15 15 15 17 17 17 19 20 19 19 20 21 22 24 28 31 34 38 41 44 47 50 53 55 57 58 58 59 59 59 59 59 59 60 60 59 59 58 57 56 56 56 57 57
18 17 18 19 18 17 17 18 21 22 23 23 23 23 22 22 21 21 21 22 22 22 22 22 22 21 20 18 18 17 17 17 17 19 20 19 18 17 17 16 15 15 16 17 16 16 17 17 18 20 19 18 18 18 18 18 20 22 25 28 32 35 38 42 45 48 50 51 52 52 52 52 52 52 53 53 53 53 52 51 50 49 48 48 48 48
17 15 16 17 16 17 16 15 19 22 23 23 22 22 21 20 20 20 19 19 20 20 20 20 21 22 21 20 19 19 18 18 18 18 18 19 18 18 18 18 18 18 18 19 18 17 18 18 19 20 20 19 17 17 17 17 17 18 19 22 24 27 30 32 35 38 41 43 44 45 45 45 45 45 45 46 46 46 45 44 43 42 42 42 42 42
14 13 13 15 15 16 17 15 16 18 20 22 21 21 20 19 19 19 18 18 18 18 18 18 19 20 21 21 21 20 19 19 19 19 19 19 19 19 19 18 19 19 20 22 22 20 19 20 21 21 22 21 20 19 18 18 18 18 19 20 21 22 24 25 27 29 30 32 34 35 36 36 37 37 38 38 39 39 39 39 38 38 37 37 38 39
11 11 12 13 14 14 14 14 15 15 17 18 19 19 19 19 19 19 18 17 17 17 17 17 17 18 19 21 22 22 21 21 21 21 21 20 19 19 20 19 19 20 21 23 23 23 22 23 24 23 23 23 22 22 21 20 20 19 20 20 21 21 22 22 23 23 23 23 24 25 26 27 28 30 30 31 32 33 34 34 34 34 34 35 36 36
15 15 14 13 13 13 12 14 16 17 18 16 16 18 18 17 18 19 18 17 16 16 16 16 16 16 17 18 20 21 22 22 22 23 24 24 23 21 21 20 20 20 22 24 25 26 25 25 26 26 25 24 24 24 23 22 22 21 20 20 20 20 21 21 21 21 20 20 19 19 19 20 21 23 24 25 26 28 30 30 30 30 31 32 32 33
20 21 19 17 19 19 19 19 21 23 23 20 16 16 16 16 17 18 18 18 17 15 15 15 15 15 16 17 18 19 20 21 21 21 22 24 24 24 23 22 21 20 21 23 25 26 27 27 27 28 28 27 26 26 25 25 24 24 23 22 21 20 20 21 20 20 19 18 17 16 15 16 17 18 20 22 23 24 26 27 27 27 28 29 29 29
23 24 23 22 24 25 24 24 26 28 28 26 21 17 15 14 15 17 18 19 19 17 15 15 15 15 15 16 17 17 18 19 19 19 19 20 21 22 23 23 22 21 21 22 23 24 25 26 27 28 30 30 29 28 28 27 26 26 26 25 24 22 21 20 20 20 19 17 16 14 13 13 14 15 17 19 20 21 23 24 25 25 26 27 27 27
21 22 22 23 24 24 25 26 27 29 30 28 25 22 20 18 16 16 18 19 19 20 18 17 16 15 14 15 17 17 18 19 20 20 20 20 20 21 22 23 23 23 22 22 22 23 23 24 25 26 29 30 30 30 29 28 27 27 26 27 27 25 23 21 19 19 19 18 16 14 12 11 12 13 15 16 17 18 19 21 22 23 24 25 25 26
14 15 17 19 19 18 19 20 21 23 25 26 27 26 24 23 22 21 22 22 21 21 23 21 18 17 15 15 16 16 17 19 20 21 21 21 22 22 22 23 24 24 25 25 24 24 23 23 22 23 26 28 29 30 30 29 29 28 27 26 27 27 25 23 20 18 17 17 16 14 12 11 11 12 13 14 15 16 17 18 19 20 20 21 23 24
10 11 13 14 14 14 14 14 15 16 18 21 23 24 24 24 25 25 27 28 26 25 28 26 22 20 17 15 15 16 16 17 17 19 19 20 20 21 23 24 26 26 27 28 28 27 25 23 22 22 24 26 27 28 30 29 29 29 28 27 27 27 26 25 23 21 18 17 16 15 13 11 10 10 11 13 14 14 15 17 18 19 18 19 21 23
12 12 13 14 13 13 14 14 14 15 16 18 20 21 21 21 22 24 26 29 29 28 30 29 25 23 20 17 16 15 15 15 16 17 18 19 19 19 21 24 27 28 29 29 30 29 28 25 23 23 25 26 27 27 28 29 29 29 29 28 27 26 26 25 24 22 21 19 18 16 14 12 11 10 10 10 11 12 13 15 17 17 17 17 18 21
14 14 15 16 16 16 17 18 18 18 17 18 19 19 20 19 19 21 23 27 28 28 28 28 26 25 23 20 18 17 16 16 16 16 17 18 18 18 19 22 25 28 29 30 30 30 30 28 25 25 26 26 27 28 28 29 29 28 28 27 27 26 26 25 24 23 22 21 19 18 17 15 13 11 11 10 10 10 11 12 14 14 14 13 14 16
15 15 16 18 18 18 20 21 20 21 20 18 18 19 20 20 20 20 20 23 25 26 27 27 26 26 26 25 22 20 19 18 17 16 16 16 17 16 16 18 23 27 28 30 31 31 32 31 29 27 27 27 27 28 29 29 28 28 27 26 26 26 25 25 24 23 22 21 21 20 18 17 16 14 13 12 12 11 11 11 12 13 13 12 12 14
15 15 17 18 18 19 21 21 21 21 20 20 21 21 20 21 21 21 20 20 20 23 25 26 27 28 29 28 26 25 23 21 19 18 17 16 16 15 14 15 19 24 27 29 31 33 34 34 34 33 30 28 27 27 28 29 28 27 27 25 25 24 24 24 24 23 22 21 21 21 19 18 17 17 16 15 15 14 13 13 13 14 14 13 13 14
14 15 16 18 19 19 21 22 22 22 21 22 23 24 23 22 22 22 21 20 19 19 20 23 26 28 30 29 28 28 27 24 22 21 19 18 17 16 15 14 15 19 23 27 29 32 35 36 37 37 34 31 28 28 28 28 28 27 26 25 24 23 23 23 23 22 22 21 21 21 20 19 18 18 18 18 18 17 16 15 15 16 16 16 15 16
15 16 17 18 19 20 21 22 22 22 22 24 25 26 25 24 24 23 22 20 19 18 18 20 22 25 27 28 29 30 29 26 24 23 22 20 19 17 15 14 14 15 19 24 26 28 31 34 36 38 37 35 31 29 28 28 27 26 25 24 23 22 22 22 22 22 22 21 21 20 19 18 18 18 18 19 19 19 19 18 18 19 19 19 19 19
18 18 18 19 20 20 21 22 22 22 22 24 26 27 27 25 24 24 23 22 21 21 20 20 20 21 22 25 27 29 29 27 25 24 24 23 21 19 17 16 14 14 16 21 24 25 27 30 33 36 38 37 35 32 30 29 28 26 25 23 22 21 20 21 20 20 20 20 19 18 17 17 17 17 18 19 20 20 20 20 20 20 21 21 21 22
19 19 19 20 21 22 23 23 23 21 21 24 26 27 27 27 25 24 24 23 23 23 22 21 21 20 20 21 23 26 27 27 26 25 26 25 23 21 19 17 16 14 15 20 23 24 26 27 30 33 36 37 37 34 31 29 28 26 25 23 21 19 19 18 18 18 17 17 17 16 16 15 16 16 17 18 19 20 20 20 20 20 21 21 21 22
20 22 22 21 22 23 24 25 24 22 21 24 26 26 26 27 26 26 25 24 24 24 24 23 21 21 20 20 21 22 23 24 25 26 27 26 25 24 22 20 18 15 13 17 22 24 25 27 27 30 33 36 36 35 32 29 28 26 24 23 21 19 17 16 16 15 15 15 14 14 14 14 14 14 15 16 17 17 17 18 18 18 19 19 19 20
22 23 24 24 23 23 25 27 26 24 23 24 25 26 26 25 26 27 27 26 25 25 24 24 24 22 22 21 21 21 21 21 23 25 26 26 26 26 24 22 21 19 14 14 19 22 24 26 27 27 30 33 35 35 33 30 28 26 24 23 21 19 17 15 14 14 13 13 12 12 12 12 12 13 13 13 14 14 14 14 14 14 15 16 17 17
23 23 25 26 25 24 26 28 27 25 24 24 24 26 26 25 24 26 26 26 26 26 25 25 25 25 25 24 23 22 22 21 21 22 24 25 26 27 26 24 24 23 17 13 16 20 22 24 26 27 28 31 33 34 34 32 28 26 23 22 20 19 17 15 14 13 12 11 11 10 10 11 11 11 11 11 12 12 12 13 13 13 14 15 16 17
24 24 24 26 26 25 26 29 28 26 26 25 24 25 26 26 25 25 25 25 25 26 25 25 25 26 26 26 26 25 24 23 22 21 21 22 24 26 26 26 26 26 21 14 14 17 20 23 26 27 27 29 31 32 33 33 30 27 23 21 19 17 16 15 13 12 11 10 9 9 9 9 9 9 10 10 11 11 12 12 12 13 13 14 15 15
27 27 27 26 26 26 28 29 29 27 26 26 25 24 26 26 26 26 26 25 24 25 25 24 25 25 26 26 27 27 26 24 23 21 20 20 22 24 26 27 28 28 24 18 15 16 17 20 24 27 27 28 29 30 31 32 31 29 25 21 18 16 14 13 12 11 10 9 8 7 7 7 7 7 7 7 8 8 8 8 9 9 9 10 10 10
28 28 28 27 26 27 28 30 29 27 27 27 25 24 25 25 25 26 27 27 26 25 25 25 25 25 26 26 26 27 27 26 25 23 20 19 20 22 26 28 28 28 26 21 18 16 15 17 22 25 26 27 27 28 29 30 31 30 28 24 21 17 14 12 11 10 9 8 7 6 5 4 4 4 4 4 4 4 4 5 6 6 7 8 9 9
30 29 29 29 28 28 28 29 28 28 28 28 26 24 25 25 25 25 26 27 27 27 26 26 26 26 26 26 26 26 26 27 27 25 22 20 19 21 23 26 27 27 27 24 21 18 17 16 19 22 25 26 27 27 27 29 30 30 29 27 24 20 17 15 13 11 10 9 9 8 7 7 6 6 5 5 5 6 7 7 8 8 9 9 10 10
29 29 29 30 29 29 29 29 28 28 30 31 28 26 25 25 24 24 25 26 26 26 26 26 27 27 27 26 26 26 26 26 27 27 25 23 20 19 20 23 25 26 27 26 24 21 19 17 18 20 23 25 26 26 26 27 28 29 28 27 26 23 20 18 17 16 15 14 14 13 13 12 12 11 11 11 11 11 11 10 10 10 10 10 11 12
27 26 27 28 29 30 30 30 29 29 32 33 31 28 27 27 25 25 25 25 24 24 25 26 27 28 28 27 27 26 26 26 26 26 26 25 23 21 20 20 23 25 26 27 26 23 21 19 17 19 21 23 25 26 26 26 26 27 27 27 27 25 23 20 18 18 19 19 19 19 18 18 17 17 16 16 15 14 13 12 12 11 11 12 13 13
22 20 20 21 24 27 30 31 30 31 33 35 32 29 27 28 27 26 26 25 23 23 24 25 27 28 28 29 28 28 28 27 26 26 26 25 24 23 22 21 21 23 25 27 27 25 24 21 18 18 19 22 24 25 25 26 26 25 26 27 27 26 25 23 20 19 19 20 20 20 20 20 20 19 18 17 16 15 14 13 13 13 13 13 13 14
17 15 15 17 18 22 26 27 26 27 31 34 33 30 28 29 28 27 26 25 24 23 24 25 27 28 28 29 29 29 28 28 27 27 26 25 25 24 23 23 22 22 23 25 26 26 25 23 21 20 19 20 22 24 24 26 26 25 25 25 26 26 25 25 23 21 20 20 20 20 21 20 20 20 19 18 17 16 16 15 15 15 15 15 15 16
20 18 19 19 19 21 26 26 24 24 27 31 32 30 29 28 28 26 24 24 23 23 24 25 27 28 28 28 29 30 30 29 28 28 27 26 25 24 23 23 24 24 23 23 24 26 26 26 24 22 20 19 20 22 24 26 26 26 25 24 25 25 25 24 24 23 21 21 21 21 21 21 21 20 20 19 19 18 18 17 17 16 16 16 17 17
26 24 25 24 22 24 27 27 24 24 27 30 30 30 28 26 26 25 23 22 22 22 23 25 27 28 28 28 28 29 30 30 30 29 28 27 26 26 25 24 24 25 26 25 24 25 26 27 27 25 22 19 18 20 23 26 26 26 25 24 24 24 24 23 23 22 21 20 20 21 22 22 22 22 21 20 20 20 19 19 19 18 18 18 18 18
32 31 31 27 25 26 28 28 25 26 28 30 30 29 27 26 24 24 24 23 23 23 23 25 27 29 29 30 30 29 29 30 30 30 29 28 27 26 26 25 25 25 26 26 25 25 25 26 27 27 24 20 19 20 22 24 25 25 24 24 23 23 23 23 22 22 21 20 19 19 21 22 23 23 23 23 22 22 21 21 21 21 20 20 20 20
37 38 36 31 28 28 29 29 27 28 30 31 29 29 28 28 26 26 26 26 25 24 25 25 27 29 30 31 31 31 30 30 31 30 30 30 29 27 27 26 26 25 26 26 26 25 25 25 26 27 25 23 22 22 21 21 23 24 24 24 24 23 23 24 23 22 21 19 18 18 19 21 22 23 24 25 24 24 24 23 23 23 23 23 23 23
Wind_Direction
354 349 345 341 338 333 324 306 283 272 265 259 253 247 241 238 236 235 234 235 235 231 228 229 230 230 229 228 226 226 229 233 236 239 240 240 240 238 237 238 239 238 237 237 237 237 236 236 236 236 236 237 238 239 239 239 239 239 241 245 246 246 245 245 246 246 245 245 244 245 246 246 247 248 249 250 249 249 249 248 248 249 251 253 254 254
357 354 352 349 347 345 339 326 297 282 275 268 259 247 239 235 234 232 232 233 234 233 229 228 230 230 229 229 228 227 228 231 234 238 240 242 242 242 241 240 240 240 240 239 239 239 238 237 237 238 239 240 241 242 243 243 243 244 246 248 249 249 249 248 248 248 248 247 246 246 246 247 247 248 249 249 249 249 249 249 249 249 249 250 252 253
359 358 358 357 357 355 353 346 324 304 289 276 265 251 239 234 233 232 230 231 232 232 229 227 228 228 228 229 229 228 228 230 233 236 240 242 243 244 243 242 242 242 242 242 242 241 240 239 239 239 240 242 243 244 245 246 246 247 249 250 251 251 251 250 250 249 249 249 248 248 247 247 248 248 249 249 249 249 248 248 249 251 251 251 250 251
4 4 4 6 7 7 8 9 357 347 319 279 265 253 242 234 232 230 229 230 231 231 230 229 228 228 228 229 230 230 230 231 232 234 238 242 244 246 245 244 243 243 243 244 244 244 243 242 241 241 242 243 244 245 247 247 247 249 250 251 251 251 251 251 251 251 251 250 250 250 249 248 248 249 249 249 249 249 249 248 248 249 251 252 252 251
8 8 10 13 17 19 23 28 23 19 16 330 277 253 242 236 232 229 228 229 230 231 231 230 229 228 228 229 230 231 232 232 233 234 237 242 244 247 247 246 246 245 245 245 246 247 246 245 244 244 244 245 245 246 248 249 249 250 251 252 252 252 252 252 252 251 251 251 251 252 251 250 250 249 250 250 250 250 250 249 249 249 249 251 253 252
11 12 15 19 23 27 32 37 35 31 33 28 5 293 250 240 234 232 232 231 229 229 230 231 231 229 228 228 229 230 231 232 234 235 237 242 245 248 249 249 249 249 248 247 248 249 250 249 249 248 248 247 247 248 249 250 251 252 253 253 254 254 254 253 253 252 252 252 252 253 253 253 252 251 251 251 251 251 251 251 250 250 250 250 252 252
14 15 18 23 27 31 35 39 40 39 38 40 41 36 15 268 240 233 235 237 234 233 232 231 231 230 229 228 229 230 231 232 234 235 237 240 245 249 252 253 253 253 252 250 250 250 252 252 252 252 252 251 251 250 251 251 252 253 254 255 255 255 255 255 255 254 254 253 253 253 254 254 254 254 253 253 253 253 253 252 252 251 251 251 251 252
16 19 21 25 29 33 36 39 42 42 42 42 44 44 41 33 306 241 239 245 246 246 242 232 229 231 230 229 230 231 231 233 235 236 237 239 243 247 251 254 256 257 256 255 253 252 252 253 254 254 254 254 254 253 253 253 253 254 255 256 256 256 257 257 257 257 256 256 255 255 255 255 256 256 256 255 255 255 254 254 254 253 252 252 252 253
16 20 23 26 30 35 37 39 41 43 44 45 45 46 46 46 45 319 253 254 255 256 255 247 239 236 234 232 232 232 232 233 235 237 239 240 242 246 250 253 256 258 259 259 258 256 256 256 256 256 255 255 255 255 255 255 255 256 256 257 257 257 257 258 258 258 259 259 258 258 258 257 257 257 257 257 257 257 256 256 256 255 255 254 254 254
14 18 23 27 30 35 39 41 42 43 44 46 47 49 50 50 52 50 12 284 273 271 269 266 260 255 250 244 239 235 233 232 234 237 239 241 243 246 250 253 255 257 259 260 260 260 261 261 260 259 258 257 255 255 255 256 256 257 257 257 258 259 259 259 259 260 260 261 261 261 260 260 260 259 259 259 258 258 258 258 258 257 257 257 256 256
13 14 20 25 29 34 38 42 44 45 46 48 49 51 53 54 54 54 49 24 325 298 285 276 271 266 262 260 254 248 241 236 235 237 239 241 241 243 247 250 254 256 257 259 260 261 261 262 263 263 261 260 258 257 256 256 256 257 257 257 258 259 260 261 261 261 262 262 263 263 263 262 262 262 261 261 260 260 260 260 260 260 260 259 259 259
11 12 16 22 27 32 36 40 43 46 47 49 50 51 53 55 57 57 57 54 44 16 326 291 279 273 268 268 267 264 258 251 245 245 247 248 247 247 248 251 254 256 257 258 258 259 260 260 262 262 262 262 261 260 259 258 258 258 258 258 258 258 259 260 261 262 262 263 263 264 264 264 264 264 264 263 263 263 262 262 262 262 262 262 261 261
10 11 13 18 22 28 32 36 39 43 45 47 49 51 52 53 56 57 57 56 54 48 37 12 327 308 294 283 282 285 283 272 259 252 253 255 256 256 256 256 258 259 260 260 259 260 261 261 261 262 262 262 263 263 262 261 261 260 260 259 259 258 259 259 260 261 262 262 263 263 264 264 264 265 265 265 265 265 265 264 264 264 264 264 264 263
8 9 12 15 19 23 28 32 35 38 41 43 45 48 50 51 53 56 56 56 54 52 49 48 48 39 25 351 320 313 308 296 282 261 251 252 256 260 260 261 263 264 265 265 265 265 265 265 266 266 265 264 263 263 262 262 262 262 262 262 261 260 260 260 260 260 261 261 261 262 263 263 264 265 265 265 266 266 266 266 266 265 265 265 265 265
6 8 9 12 16 21 25 27 30 33 35 39 41 44 46 46 48 50 52 54 54 55 54 52 55 51 40 24 4 335 317 309 306 299 272 255 254 257 261 263 266 265 264 267 269 269 271 275 275 274 270 267 264 263 261 261 261 262 262 262 262 262 261 261 260 260 261 261 261 262 263 264 264 265 265 265 266 266 266 266 266 266 266 266 266 266
3 5 6 8 12 18 24 25 25 27 29 32 35 38 41 41 42 43 44 46 48 51 53 49 43 36 26 13 354 335 319 306 298 290 270 256 253 256 260 262 266 268 268 272 277 278 282 286 286 284 281 276 271 267 264 262 262 263 263 263 263 262 262 261 261 261 262 262 263 264 265 265 266 267 267 267 267 267 267 267 267 267 267 266 266 266
355 2 3 4 7 12 21 23 22 22 24 24 27 31 34 36 38 39 39 40 41 43 46 46 44 39 32 21 3 347 335 321 312 307 296 284 278 276 277 278 278 281 282 283 287 287 289 293 295 296 297 295 288 280 272 267 265 264 264 264 264 264 263 263 262 263 263 264 265 266 267 267 268 269 269 269 269 269 269 269 269 269 268 268 268 267
344 355 2 3 4 7 15 20 16 16 17 18 20 22 25 28 31 34 35 35 36 37 37 39 40 41 38 32 21 9 357 344 331 324 319 310 298 287 284 285 287 287 289 290 290 291 294 299 302 303 303 303 300 295 287 279 272 269 268 267 266 266 265 265 265 265 265 266 266 267 268 268 269 269 270 270 269 269 269 269 270 270 270 270 270 270
338 345 359 2 3 5 10 15 11 7 8 9 12 14 16 18 20 24 29 31 32 32 32 32 31 33 33 31 26 22 14 2 346 334 326 318 307 294 285 283 284 284 286 288 290 294 298 302 304 303 301 300 301 301 300 294 287 280 276 274 272 270 269 268 268 267 267 267 267 267 268 268 269 269 270 269 268 268 268 269 269 270 271 272 272 272
335 337 357 3 2 2 3 7 6 2 360 358 0 5 7 8 10 13 18 23 27 28 28 27 25 25 27 27 26 24 21 12 359 347 338 329 317 303 290 281 280 281 284 288 291 295 300 303 303 302 302 301 301 303 306 306 303 298 293 287 284 280 277 275 273 271 269 268 267 267 267 268 269 269 270 269 268 267 268 269 270 271 272 273 273 273
332 330 349 358 356 354 352 350 352 355 356 352 350 354 358 359 0 2 5 9 15 19 21 23 22 20 19 21 21 20 20 16 7 359 353 345 333 320 307 295 286 285 287 290 294 298 301 302 302 303 307 309 310 312 313 315 314 313 311 306 302 298 293 290 286 282 277 272 269 267 268 269 270 270 270 269 268 268 268 269 270 271 272 273 273 273
317 311 321 336 338 340 340 336 335 338 343 347 345 343 346 350 351 353 355 358 1 5 9 13 16 15 14 14 15 15 15 15 10 6 3 358 347 334 323 313 301 293 292 294 297 300 302 302 303 306 309 313 316 318 319 320 319 317 316 314 314 312 309 306 303 298 292 283 277 273 272 272 272 272 271 270 269 268 268 268 268 269 269 270 271 272
300 299 298 303 307 311 314 316 319 321 321 327 336 337 334 338 343 344 345 346 349 352 356 359 4 8 9 9 10 11 13 14 12 9 6 5 0 351 341 331 319 307 299 299 300 302 304 305 306 308 311 313 316 318 319 321 319 317 316 314 315 317 317 318 316 312 306 299 291 284 280 278 276 273 271 269 267 266 266 266 266 267 267 269 271 272
300 301 294 288 295 305 310 310 311 313 311 309 315 323 324 325 330 333 334 334 334 337 343 348 352 357 359 0 3 6 9 13 14 13 11 10 7 0 354 347 338 325 314 308 306 305 306 307 308 310 312 314 315 316 317 319 318 319 319 317 316 318 320 323 324 322 317 311 305 297 291 286 281 276 271 269 268 267 267 267 266 265 266 268 270 272
300 300 297 296 301 307 309 308 308 308 307 304 300 300 304 308 312 317 322 324 323 323 328 335 339 344 348 349 351 355 360 5 9 12 12 12 11 7 2 358 353 344 334 326 318 312 310 308 309 310 311 313 315 315 316 317 318 318 319 319 318 319 320 323 326 327 325 319 313 306 299 292 285 278 274 273 272 271 270 268 265 264 265 267 270 271
297 298 298 299 302 305 305 306 305 303 303 301 297 292 291 292 293 299 306 311 314 314 314 320 326 329 336 339 339 343 349 354 359 3 6 8 9 9 7 4 2 359 352 344 334 327 323 318 315 313 310 311 313 312 313 315 315 316 317 318 318 319 319 320 322 325 326 324 320 314 306 296 287 281 277 275 275 273 272 270 267 265 265 267 270 271
307 306 303 304 312 319 319 316 312 307 302 298 295 292 290 288 287 290 295 298 301 302 302 307 313 315 321 328 329 332 338 344 351 355 359 3 6 7 6 3 3 4 2 358 350 342 337 334 329 319 311 310 311 310 311 313 313 314 315 316 317 317 317 318 318 319 321 322 322 320 315 305 293 284 279 276 275 273 272 271 269 267 267 268 270 271
338 332 325 328 337 341 340 335 329 322 314 305 302 302 300 295 290 288 289 290 291 292 292 297 302 304 307 314 318 320 326 332 340 346 349 355 1 4 5 2 0 3 4 4 2 355 348 344 338 327 318 316 315 313 312 313 312 313 313 313 313 314 314 315 316 317 317 317 317 318 318 315 307 295 286 280 277 275 274 273 272 271 269 269 270 271
6 1 355 357 360 353 347 346 342 336 329 324 324 325 322 312 300 291 285 284 284 284 286 290 295 295 297 301 303 308 314 317 325 333 337 344 352 359 2 359 357 359 1 2 3 2 358 352 343 334 328 327 323 319 316 314 312 310 309 309 310 310 311 311 313 314 315 315 314 313 313 314 313 308 300 292 286 282 279 278 277 276 275 274 274 275
15 12 10 12 10 2 359 0 357 353 347 341 339 337 333 327 315 301 289 282 281 280 280 285 288 289 290 290 292 297 303 306 311 319 325 332 340 350 356 355 350 352 356 359 0 2 2 360 352 341 335 333 330 324 320 316 313 310 307 306 305 306 306 307 308 310 311 313 312 310 308 307 307 306 303 300 296 292 288 286 285 284 284 282 281 281
10 6 6 10 10 4 3 6 5 2 358 351 346 342 339 336 331 322 308 295 287 281 278 279 280 280 281 283 288 293 295 296 300 305 312 318 326 337 347 349 345 343 347 354 357 358 360 1 359 352 344 339 334 328 324 321 317 312 308 305 302 302 302 302 304 305 307 309 309 307 305 303 301 300 298 296 294 293 292 290 290 290 290 289 287 286
2 356 355 359 2 1 0 3 5 3 359 353 350 352 351 347 343 340 333 321 307 293 284 279 276 276 279 283 288 289 288 290 292 294 299 304 310 320 331 341 343 340 340 345 351 355 357 358 359 357 351 344 338 332 328 325 320 315 311 307 302 299 298 298 299 300 302 304 304 304 302 299 297 295 294 292 291 290 289 289 289 289 288 288 286 285
352 349 347 350 354 355 355 358 2 1 355 350 350 354 358 357 354 352 349 343 333 317 300 287 279 279 281 283 283 283 283 286 286 288 293 296 299 307 318 328 335 338 337 338 343 350 353 355 357 356 354 349 343 338 332 327 323 318 313 309 305 301 298 296 296 296 297 298 299 299 298 296 294 291 289 289 287 287 286 285 285 285 285 285 284 283
340 341 341 342 345 347 349 353 358 358 352 348 348 351 355 358 359 358 357 352 345 336 321 305 293 288 286 284 282 282 283 283 281 284 289 290 292 298 306 313 322 333 336 334 336 343 348 351 353 353 354 352 347 343 337 332 328 323 317 311 307 303 299 296 295 294 295 295 295 295 294 292 290 288 286 285 284 284 284 283 283 283 284 286 286 286
328 331 333 334 336 338 341 347 354 356 349 343 346 349 351 354 356 357 359 356 350 345 338 329 321 313 303 295 290 289 290 289 285 282 282 282 286 291 295 300 309 323 331 329 331 336 341 345 349 350 352 354 351 346 341 337 334 329 323 317 311 306 301 298 297 296 295 294 293 292 291 289 288 287 285 284 282 281 281 280 280 281 282 284 285 287
317 320 323 325 327 329 332 337 347 353 345 339 342 347 348 350 351 351 354 355 353 351 348 343 339 334 324 313 303 299 298 297 290 281 276 277 280 282 285 290 298 311 322 322 325 332 335 338 344 347 350 353 353 349 344 340 337 333 329 324 318 311 306 302 301 300 298 296 294 292 291 290 289 288 287 285 283 281 279 279 279 280 281 282 284 286
307 310 313 317 319 321 322 327 338 347 342 336 339 343 346 349 347 345 346 348 349 352 352 349 346 340 334 328 321 312 305 298 290 282 278 276 276 276 279 284 290 298 310 315 319 327 332 333 337 343 347 351 354 353 348 342 338 336 333 330 326 320 314 309 306 304 302 300 299 297 296 294 293 291 290 288 286 284 282 281 280 281 283 284 286 286
299 301 304 307 311 313 313 317 328 338 337 334 335 337 342 347 345 342 342 342 342 346 350 350 348 345 340 335 330 324 316 305 293 285 281 278 275 275 276 279 283 289 297 305 311 320 328 329 330 336 341 347 351 354 353 348 341 338 336 334 332 329 323 319 314 310 308 307 307 307 305 302 298 295 292 291 290 288 287 286 285 284 285 286 287 286
293 294 295 298 302 305 305 308 318 328 330 331 332 332 335 342 343 339 340 339 338 339 343 346 347 346 345 342 337 331 326 318 306 292 284 279 274 273 274 274 277 283 288 294 302 312 323 327 327 329 335 341 347 352 355 354 348 342 338 336 336 334 331 327 323 318 315 314 316 317 314 310 305 301 297 295 293 292 290 288 287 286 285 285 286 286
290 291 290 291 295 297 296 299 309 318 321 325 329 328 329 336 338 337 337 337 334 333 335 339 341 342 344 346 344 340 335 330 320 306 293 283 275 270 270 271 272 278 285 288 292 304 317 323 324 326 329 334 341 347 352 355 355 350 344 339 338 337 336 334 332 327 324 323 322 320 317 314 310 305 302 297 293 291 290 290 289 288 288 288 289 292
287 288 288 289 292 293 292 294 302 310 314 318 324 323 324 329 332 333 334 333 331 329 329 332 334 336 339 344 347 346 342 338 331 320 306 293 280 270 267 267 270 275 282 284 283 292 308 317 320 322 324 327 333 339 345 351 355 355 352 347 345 343 343 344 343 341 338 335 331 326 319 314 309 305 301 298 296 296 296 297 298 299 301 302 305 309
285 286 287 288 289 289 289 292 299 305 307 311 316 317 317 322 326 328 329 330 329 327 326 328 329 331 333 338 343 346 346 343 339 331 319 304 290 278 270 268 270 274 279 281 280 282 294 308 314 317 320 322 325 331 338 345 351 355 357 355 354 353 354 356 357 357 356 355 353 351 345 341 339 338 337 330 328 328 329 330 333 334 334 332 331 332
282 283 284 285 286 286 287 289 294 298 299 303 308 309 311 315 319 322 325 326 326 326 325 326 326 327 329 332 337 342 345 345 342 338 331 318 303 290 282 277 274 274 276 278 279 278 283 295 308 314 318 320 320 323 330 337 344 351 356 358 358 359 2 7 10 12 12 12 13 11 10 10 8 4 3 1 1 2 0 358 356 352 348 343 337 331
281 282 282 283 284 284 285 287 291 293 294 297 302 305 307 310 314 317 320 321 322 323 323 324 324 324 325 328 332 335 339 343 343 342 338 332 320 307 295 286 280 276 275 275 277 277 278 284 299 310 315 317 318 319 323 330 337 345 351 356 359 0 3 9 15 20 21 20 20 18 16 15 11 7 4 2 2 0 357 353 348 343 339 334 327 324
285 284 282 281 281 281 282 284 287 289 291 294 298 302 304 306 309 312 314 316 318 319 321 322 322 323 323 325 329 331 333 337 341 342 341 338 331 321 307 293 284 278 274 273 274 277 277 278 288 302 310 313 315 317 319 323 330 337 344 349 355 359 2 7 14 21 24 24 23 21 19 17 13 10 9 7 5 2 356 349 345 341 338 335 333 333
290 291 285 281 280 281 281 282 284 287 289 292 296 300 301 302 305 309 311 312 314 316 318 319 320 321 322 323 326 328 330 332 335 338 339 340 337 330 318 304 289 279 275 274 274 276 277 276 278 288 299 306 311 315 317 318 322 329 336 342 347 353 358 1 6 14 21 24 24 24 22 20 18 16 14 13 12 10 7 4 2 360 357 356 354 353
293 295 288 286 288 286 284 287 293 295 292 293 297 301 301 301 303 307 310 311 311 313 315 316 317 318 320 322 324 326 327 329 330 332 334 336 338 336 328 315 301 288 279 275 274 275 276 276 275 277 286 298 308 312 314 314 315 320 328 336 341 346 351 356 359 3 8 12 15 16 17 18 18 17 16 15 14 13 11 8 6 6 4 2 1 359
290 290 286 289 294 292 290 296 305 305 297 294 299 305 306 305 306 306 306 307 308 309 310 312 314 316 318 320 323 324 326 328 328 328 329 330 334 337 334 325 313 302 291 281 275 273 274 275 273 271 275 289 302 308 310 310 310 313 319 328 334 338 343 348 352 355 358 0 1 3 4 6 7 9 10 10 9 10 9 6 2 359 357 355 353 353
286 286 283 288 292 289 291 298 305 304 298 297 301 307 311 312 309 306 303 302 303 304 305 307 309 311 314 316 319 321 323 326 327 327 325 325 328 331 333 331 323 312 303 294 285 278 274 273 271 267 267 277 293 303 306 305 305 307 311 318 326 331 335 339 343 348 351 352 352 351 351 352 354 356 358 0 0 2 3 2 360 356 352 349 346 346
284 282 281 284 286 286 290 296 299 299 298 299 303 307 310 312 313 312 311 310 309 306 304 304 304 306 309 312 314 317 319 322 325 326 324 323 323 325 327 330 329 322 312 303 295 287 279 275 273 270 265 268 283 295 299 299 300 302 305 309 315 322 327 330 334 338 342 344 344 342 341 342 342 343 345 347 350 351 353 355 355 353 350 347 344 342
280 279 279 280 281 284 288 291 295 296 296 298 303 304 306 312 318 321 322 322 320 314 308 303 301 301 304 307 309 312 315 317 320 323 323 322 322 321 322 324 326 327 322 313 303 295 287 280 276 272 267 265 273 283 288 291 295 298 299 301 305 311 317 321 324 327 331 334 335 334 334 334 334 333 334 335 337 340 342 345 347 348 346 345 343 340
Height
10625 10622 10619 10616 10612 10609 10606 10604 10601 10599 10598 10597 10597 10598 10599 10600 10600 10602 10604 10605 10608 10613 10619 10622 10624 10627 10631 10636 10640 10642 10642 10642 10642 10641 10642 10645 10647 10649 10649 10650 10649 10649 10651 10652 10653 10654 10656 10657 10659 10660 10661 10662 10662 10663 10663 10664 10666 10667 10668 10668 10669 10670 10671 10672 10673 10673 10674 10675 10675 10676 10676 10677 10678 10680 10682 10685 10687 10689 10689 10690 10691 10693 10695 10697 10699 10701
10625 10622 10618 10614 10611 10607 10604 10601 10599 10597 10595 10594 10593 10594 10595 10595 10596 10597 10599 10601 10603 10608 10614 10618 10619 10622 10627 10631 10634 10636 10638 10639 10639 10639 10639 10640 10641 10643 10644 10644 10643 10643 10644 10646 10648 10650 10651 10653 10655 10656 10657 10657 10657 10658 10659 10661 10661 10662 10662 10662 10663 10664 10665 10666 10667 10667 10668 10669 10670 10670 10671 10671 10672 10673 10675 10677 10680 10682 10683 10684 10685 10687 10689 10691 10693 10695
10626 10622 10618 10614 10610 10606 10602 10599 10597 10595 10594 10592 10591 10591 10591 10592 10593 10594 10596 10597 10599 10603 10608 10611 10613 10617 10621 10624 10627 10630 10633 10634 10636 10636 10636 10635 10635 10637 10638 10638 10638 10637 10638 10640 10641 10643 10646 10648 10650 10651 10651 10652 10652 10653 10654 10655 10655 10655 10656 10656 10656 10657 10658 10659 10660 10662 10662 10663 10664 10665 10665 10666 10666 10666 10667 10669 10672 10674 10675 10677 10679 10681 10683 10685 10687 10689
10626 10622 10618 10614 10610 10605 10601 10598 10596 10595 10593 10591 10590 10589 10589 10589 10590 10592 10594 10595 10597 10600 10603 10606 10609 10613 10616 10619 10622 10625 10628 10631 10633 10634 10633 10632 10632 10631 10631 10632 10633 10632 10633 10634 10635 10637 10641 10643 10644 10645 10646 10646 10647 10647 10648 10649 10649 10648 10648 10648 10649 10650 10652 10653 10654 10655 10656 10657 10658 10659 10659 10659 10660 10660 10661 10661 10663 10666 10667 10669 10672 10674 10677 10679 10681 10683
10626 10622 10618 10614 10610 10606 10602 10598 10596 10594 10592 10590 10589 10588 10588 10588 10589 10591 10592 10593 10596 10598 10599 10602 10605 10608 10612 10615 10618 10621 10624 10627 10629 10630 10630 10629 10628 10626 10626 10627 10627 10628 10630 10630 10631 10633 10635 10638 10639 10640 10640 10640 10641 10642 10643 10643 10642 10642 10641 10640 10641 10643 10645 10646 10647 10648 10649 10649 10650 10652 10652 10653 10653 10654 10654 10654 10655 10657 10659 10661 10664 10668 10670 10673 10676 10678
10626 10623 10619 10614 10610 10606 10603 10599 10597 10594 10592 10590 10588 10588 10587 10587 10588 10590 10591 10593 10595 10596 10597 10599 10601 10603 10607 10610 10613 10615 10618 10622 10625 10627 10627 10626 10624 10622 10621 10621 10622 10623 10625 10627 10629 10630 10631 10633 10634 10634 10634 10634 10635 10636 10637 10637 10636 10635 10634 10633 10633 10635 10637 10638 10639 10640 10641 10641 10642 10643 10644 10644 10645 10646 10647 10647 10648 10649 10651 10653 10657 10661 10664 10667 10669 10671
10627 10623 10619 10615 10611 10608 10604 10601 10598 10595 10592 10590 10589 10588 10587 10587 10588 10589 10591 10592 10594 10595 10596 10597 10598 10600 10602 10605 10608 10611 10614 10618 10621 10623 10625 10624 10622 10620 10617 10616 10615 10616 10619 10623 10625 10627 10627 10628 10628 10628 10628 10628 10629 10629 10630 10630 10629 10628 10627 10627 10626 10626 10627 10628 10629 10630 10631 10633 10633 10634 10635 10636 10637 10638 10639 10640 10641 10642 10644 10646 10649 10653 10657 10660 10662 10664
10628 10624 10620 10616 10613 10609 10606 10603 10600 10597 10594 10592 10590 10589 10588 10588 10588 10589 10590 10592 10593 10594 10594 10595 10596 10597 10599 10601 10604 10607 10611 10615 10617 10619 10622 10623 10621 10619 10616 10613 10610 10610 10612 10615 10619 10621 10622 10623 10623 10623 10623 10622 10622 10622 10622 10622 10622 10621 10620 10619 10619 10618 10618 10619 10620 10620 10622 10623 10624 10626 10627 10628 10629 10631 10632 10633 10634 10636 10637 10639 10642 10645 10649 10652 10654 10656
10628 10625 10622 10619 10615 10612 10609 10606 10603 10600 10597 10594 10592 10590 10589 10589 10589 10590 10591 10592 10593 10593 10593 10594 10595 10596 10597 10599 10601 10604 10607 10611 10613 10616 10618 10620 10620 10618 10615 10612 10609 10607 10606 10608 10611 10614 10616 10618 10618 10617 10616 10615 10614 10614 10614 10614 10614 10613 10612 10611 10611 10610 10610 10610 10611 10612 10612 10613 10615 10616 10617 10619 10620 10622 10625 10626 10627 10628 10629 10631 10634 10636 10639 10643 10646 10648
10629 10626 10624 10621 10617 10614 10611 10608 10605 10603 10600 10598 10596 10594 10592 10592 10591 10591 10592 10592 10593 10593 10593 10594 10595 10595 10596 10597 10599 10601 10604 10607 10610 10612 10614 10616 10617 10616 10614 10610 10607 10604 10603 10604 10606 10608 10610 10611 10611 10609 10608 10607 10607 10607 10607 10607 10607 10605 10604 10604 10604 10603 10602 10602 10603 10604 10604 10605 10605 10607 10608 10610 10611 10613 10615 10617 10619 10620 10621 10622 10625 10627 10630 10633 10636 10638
10629 10627 10625 10622 10619 10616 10614 10611 10608 10606 10604 10602 10600 10599 10597 10595 10594 10593 10593 10593 10593 10593 10593 10594 10594 10594 10595 10595 10596 10598 10600 10603 10607 10608 10609 10611 10612 10612 10610 10607 10604 10602 10602 10603 10605 10604 10603 10604 10603 10600 10599 10599 10599 10599 10599 10600 10599 10598 10597 10598 10598 10597 10595 10595 10595 10596 10596 10597 10597 10597 10599 10600 10602 10603 10605 10607 10609 10610 10612 10613 10615 10618 10620 10623 10625 10627
10630 10628 10625 10623 10621 10618 10616 10614 10611 10609 10607 10605 10604 10602 10601 10599 10598 10596 10596 10595 10594 10594 10594 10593 10593 10594 10594 10594 10595 10596 10597 10600 10603 10605 10605 10606 10606 10606 10605 10603 10601 10600 10600 10601 10601 10600 10599 10599 10597 10592 10591 10591 10590 10590 10591 10592 10592 10590 10590 10592 10592 10591 10590 10588 10588 10588 10588 10588 10589 10589 10589 10591 10592 10594 10595 10596 10598 10599 10601 10604 10606 10607 10609 10611 10613 10614
10631 10628 10626 10624 10622 10620 10617 10615 10613 10611 10609 10608 10606 10605 10604 10602 10600 10599 10598 10597 10597 10596 10595 10594 10593 10593 10594 10594 10594 10594 10595 10596 10599 10601 10602 10602 10601 10600 10600 10599 10598 10597 10596 10596 10596 10596 10595 10594 10591 10587 10586 10585 10583 10583 10583 10583 10582 10581 10582 10584 10585 10585 10584 10583 10582 10582 10581 10580 10580 10580 10580 10581 10582 10584 10585 10586 10587 10588 10590 10592 10595 10596 10598 10599 10600 10602
10631 10629 10627 10625 10623 10621 10619 10617 10615 10613 10612 10610 10609 10607 10606 10605 10604 10602 10601 10600 10599 10598 10597 10596 10595 10595 10595 10595 10594 10594 10594 10594 10596 10598 10599 10598 10598 10597 10595 10595 10595 10594 10592 10592 10592 10592 10590 10589 10587 10584 10583 10581 10578 10577 10576 10575 10573 10572 10574 10575 10575 10575 10575 10574 10574 10573 10572 10571 10571 10571 10571 10572 10573 10574 10575 10576 10576 10577 10578 10580 10582 10584 10585 10586 10587 10589
10632 10629 10627 10625 10624 10622 10620 10618 10617 10615 10614 10613 10611 10610 10608 10607 10606 10605 10604 10603 10602 10601 10600 10599 10598 10597 10597 10596 10595 10595 10594 10594 10594 10595 10597 10597 10596 10594 10593 10593 10592 10590 10589 10589 10589 10588 10586 10584 10582 10581 10580 10577 10574 10572 10570 10569 10567 10566 10566 10565 10565 10564 10564 10564 10564 10563 10562 10562 10562 10563 10563 10563 10564 10564 10565 10565 10566 10567 10568 10569 10571 10572 10574 10574 10575 10577
10632 10630 10628 10626 10624 10623 10621 10620 10618 10617 10615 10614 10613 10612 10610 10609 10608 10606 10605 10604 10604 10603 10602 10600 10599 10598 10597 10596 10595 10595 10594 10593 10593 10594 10595 10595 10595 10593 10591 10591 10589 10587 10586 10586 10585 10584 10583 10580 10578 10577 10575 10572 10569 10567 10565 10564 10563 10561 10559 10558 10557 10556 10555 10555 10554 10554 10554 10553 10554 10555 10555 10555 10555 10555 10556 10556 10556 10557 10557 10558 10560 10561 10562 10563 10564 10566
10631 10630 10628 10626 10625 10623 10622 10620 10619 10618 10617 10616 10614 10613 10612 10611 10610 10608 10607 10606 10605 10604 10603 10602 10601 10600 10598 10597 10596 10594 10592 10591 10589 10590 10591 10591 10591 10590 10589 10588 10586 10584 10583 10582 10581 10580 10579 10577 10574 10572 10571 10568 10566 10563 10561 10560 10559 10557 10555 10553 10551 10550 10549 10549 10548 10548 10548 10547 10548 10548 10548 10548 10548 10548 10548 10548 10548 10548 10548 10549 10550 10551 10552 10552 10554 10555
10631 10629 10628 10626 10625 10624 10622 10621 10620 10619 10618 10617 10616 10615 10614 10613 10612 10611 10609 10608 10606 10605 10604 10603 10603 10602 10601 10599 10597 10594 10592 10589 10586 10585 10585 10585 10586 10586 10585 10584 10583 10581 10580 10579 10578 10577 10575 10573 10570 10568 10567 10566 10563 10560 10558 10556 10554 10552 10551 10548 10546 10546 10545 10544 10543 10543 10543 10542 10542 10542 10542 10542 10543 10542 10542 10541 10541 10541 10541 10542 10543 10543 10544 10544 10545 10546
10630 10629 10627 10626 10625 10623 10622 10621 10620 10619 10618 10617 10616 10615 10614 10614 10613 10612 10611 10609 10607 10606 10605 10604 10603 10603 10601 10600 10598 10595 10593 10590 10587 10584 10582 10582 10582 10582 10581 10581 10580 10579 10577 10576 10575 10574 10572 10570 10567 10565 10564 10563 10561 10558 10555 10553 10551 10549 10547 10545 10543 10542 10541 10540 10539 10538 10537 10537 10537 10536 10536 10536 10537 10537 10536 10535 10535 10536 10536 10537 10538 10538 10539 10539 10540 10541
10630 10629 10627 10625 10624 10623 10622 10621 10620 10619 10618 10617 10616 10616 10615 10614 10613 10612 10611 10610 10608 10607 10606 10605 10603 10602 10602 10601 10599 10597 10595 10592 10589 10586 10583 10581 10579 10578 10578 10577 10577 10576 10574 10573 10572 10571 10569 10567 10565 10563 10561 10560 10558 10555 10552 10550 10548 10546 10544 10542 10540 10539 10538 10537 10535 10533 10532 10532 10531 10531 10531 10531 10531 10531 10530 10530 10530 10531 10532 10533 10534 10534 10535 10535 10535 10536
10629 10628 10627 10625 10624 10623 10622 10620 10619 10618 10617 10616 10616 10615 10614 10614 10613 10612 10611 10610 10609 10608 10607 10606 10604 10603 10602 10601 10600 10598 10596 10593 10590 10587 10584 10581 10578 10576 10574 10574 10573 10572 10571 10569 10568 10567 10566 10564 10563 10560 10558 10555 10553 10551 10549 10547 10544 10543 10541 10539 10537 10535 10533 10533 10531 10529 10528 10527 10526 10526 10526 10526 10526 10525 10525 10525 10526 10527 10528 10529 10530 10531 10531 10531 10531 10531
10628 10627 10626 10625 10624 10623 10621 10620 10619 10617 10616 10616 10615 10614 10614 10613 10612 10611 10610 10609 10608 10608 10607 10606 10605 10604 10602 10600 10599 10597 10595 10593 10590 10587 10584 10581 10578 10575 10573 10571 10570 10569 10568 10566 10564 10563 10562 10561 10559 10558 10555 10552 10550 10548 10546 10544 10542 10540 10538 10536 10534 10532 10530 10529 10527 10525 10523 10522 10521 10521 10521 10521 10521 10520 10521 10521 10522 10523 10524 10525 10527 10527 10528 10527 10527 10527
10626 10625 10624 10623 10622 10621 10620 10619 10618 10616 10615 10614 10614 10613 10612 10612 10610 10610 10609 10609 10608 10607 10606 10605 10604 10603 10602 10600 10599 10597 10595 10593 10590 10586 10583 10580 10577 10574 10572 10570 10569 10567 10565 10563 10561 10560 10559 10558 10556 10554 10552 10550 10548 10545 10543 10542 10540 10538 10536 10534 10532 10530 10528 10526 10524 10522 10520 10518 10518 10517 10517 10516 10516 10516 10517 10517 10519 10519 10520 10521 10523 10523 10523 10523 10523 10524
10625 10623 10622 10621 10620 10619 10619 10618 10616 10615 10614 10613 10612 10611 10611 10610 10609 10608 10607 10607 10607 10606 10605 10604 10603 10602 10601 10600 10599 10597 10595 10593 10591 10588 10584 10581 10578 10575 10572 10570 10568 10566 10564 10562 10560 10558 10556 10555 10552 10550 10548 10546 10545 10543 10541 10540 10537 10535 10534 10532 10530 10528 10526 10524 10522 10520 10518 10517 10515 10515 10514 10513 10513 10514 10514 10514 10515 10516 10517 10518 10519 10519 10519 10519 10520 10520
10622 10621 10620 10619 10618 10617 10617 10616 10615 10613 10611 10611 10610 10609 10608 10608 10608 10606 10605 10605 10604 10604 10603 10603 10601 10601 10600 10599 10598 10596 10595 10593 10592 10590 10587 10584 10581 10577 10574 10571 10569 10567 10564 10562 10559 10557 10554 10552 10550 10548 10544 10542 10541 10540 10538 10537 10535 10533 10531 10529 10527 10526 10524 10523 10521 10519 10518 10516 10514 10513 10513 10512 10511 10512 10512 10512 10513 10514 10514 10514 10515 10516 10516 10516 10517 10517
10620 10619 10618 10617 10616 10616 10615 10614 10613 10611 10608 10607 10607 10607 10606 10605 10605 10604 10603 10602 10601 10600 10600 10600 10600 10599 10598 10597 10596 10595 10593 10591 10590 10588 10586 10584 10581 10578 10575 10572 10570 10567 10564 10561 10559 10556 10553 10551 10549 10546 10543 10540 10538 10537 10535 10534 10533 10531 10529 10527 10524 10523 10522 10521 10520 10518 10517 10515 10513 10512 10511 10511 10510 10510 10510 10510 10511 10511 10511 10511 10512 10513 10513 10514 10514 10514
10619 10618 10616 10615 10615 10614 10613 10612 10610 10608 10606 10605 10603 10603 10603 10602 10602 10602 10601 10599 10599 10598 10597 10597 10598 10597 10597 10596 10594 10593 10591 10589 10587 10586 10584 10582 10579 10577 10575 10572 10569 10567 10564 10561 10558 10555 10552 10550 10548 10545 10542 10539 10537 10535 10533 10532 10530 10528 10527 10525 10522 10521 10520 10519 10518 10517 10516 10515 10513 10511 10510 10509 10509 10509 10508 10508 10509 10509 10509 10508 10509 10510 10511 10511 10511 10510
10619 10617 10616 10615 10614 10613 10612 10610 10609 10606 10604 10603 10601 10600 10599 10599 10599 10599 10598 10597 10596 10596 10593 10593 10595 10594 10594 10594 10593 10591 10590 10588 10586 10585 10583 10581 10579 10576 10573 10570 10568 10566 10563 10560 10557 10554 10551 10549 10546 10544 10541 10538 10536 10533 10530 10529 10527 10525 10523 10523 10521 10519 10517 10516 10516 10515 10514 10513 10512 10511 10509 10508 10508 10507 10507 10506 10506 10506 10506 10506 10505 10507 10508 10509 10508 10506
10618 10617 10616 10615 10614 10612 10611 10609 10608 10606 10604 10602 10600 10598 10597 10596 10595 10595 10594 10593 10593 10593 10591 10590 10591 10591 10591 10591 10590 10589 10588 10587 10585 10584 10582 10580 10578 10575 10572 10569 10566 10564 10562 10560 10557 10554 10551 10548 10545 10542 10539 10536 10534 10531 10529 10527 10525 10523 10521 10520 10519 10518 10516 10515 10514 10513 10512 10511 10511 10510 10509 10507 10506 10506 10505 10505 10504 10504 10504 10503 10503 10503 10505 10506 10505 10504
10618 10617 10616 10614 10613 10612 10610 10608 10607 10605 10603 10601 10599 10598 10596 10594 10593 10592 10591 10589 10589 10589 10588 10587 10587 10587 10587 10588 10587 10587 10586 10585 10583 10582 10580 10578 10576 10574 10571 10568 10565 10562 10561 10559 10557 10554 10551 10548 10545 10542 10538 10536 10533 10530 10528 10526 10524 10522 10520 10519 10517 10515 10514 10513 10512 10511 10510 10509 10508 10508 10507 10506 10505 10505 10504 10503 10503 10502 10502 10501 10501 10501 10502 10503 10503 10501
10617 10616 10615 10614 10613 10611 10609 10608 10606 10604 10603 10601 10599 10597 10595 10593 10591 10590 10588 10586 10586 10585 10585 10584 10584 10583 10583 10583 10583 10583 10583 10582 10581 10579 10578 10577 10575 10573 10571 10568 10565 10561 10559 10557 10555 10553 10550 10547 10545 10541 10538 10535 10532 10529 10526 10524 10522 10520 10518 10517 10515 10513 10512 10511 10510 10509 10508 10507 10506 10505 10505 10504 10504 10503 10502 10502 10501 10501 10501 10500 10500 10499 10499 10500 10500 10499
10616 10615 10613 10613 10612 10610 10608 10607 10605 10604 10602 10600 10598 10596 10595 10593 10591 10589 10587 10585 10583 10582 10581 10581 10580 10579 10579 10579 10580 10579 10579 10578 10578 10577 10576 10575 10574 10572 10570 10568 10565 10561 10557 10555 10552 10550 10548 10545 10543 10540 10537 10534 10532 10529 10526 10523 10521 10518 10516 10514 10513 10511 10510 10509 10508 10507 10506 10505 10504 10503 10502 10502 10502 10501 10500 10500 10499 10499 10499 10499 10499 10498 10497 10498 10498 10497
10615 10614 10612 10611 10610 10609 10607 10605 10604 10602 10600 10598 10596 10595 10594 10592 10590 10588 10585 10583 10581 10579 10578 10577 10577 10576 10576 10576 10576 10575 10575 10575 10574 10573 10573 10572 10571 10570 10569 10566 10564 10562 10558 10554 10551 10548 10546 10543 10541 10538 10536 10533 10530 10528 10525 10522 10519 10516 10514 10512 10510 10509 10508 10506 10505 10504 10504 10503 10502 10501 10500 10499 10499 10499 10498 10498 10497 10497 10497 10497 10497 10496 10495 10496 10496 10495
10614 10613 10611 10610 10609 10607 10606 10604 10603 10601 10599 10597 10595 10593 10592 10590 10588 10586 10584 10582 10580 10578 10576 10574 10574 10573 10572 10572 10572 10571 10571 10571 10571 10570 10569 10569 10568 10568 10566 10564 10562 10561 10558 10555 10552 10549 10546 10543 10540 10537 10534 10532 10529 10526 10523 10520 10518 10515 10512 10509 10508 10506 10505 10504 10503 10502 10501 10500 10500 10499 10498 10497 10497 10496 10496 10496 10495 10495 10495 10495 10495 10494 10493 10493 10493 10493
10612 10611 10610 10608 10607 10606 10604 10603 10602 10600 10598 10595 10594 10592 10590 10589 10587 10585 10583 10581 10579 10577 10575 10573 10571 10570 10569 10569 10568 10567 10567 10567 10567 10567 10566 10565 10564 10564 10563 10562 10560 10558 10557 10554 10552 10550 10547 10544 10541 10538 10534 10530 10527 10524 10521 10518 10516 10513 10510 10508 10506 10504 10503 10501 10500 10499 10499 10498 10497 10496 10496 10495 10494 10494 10494 10493 10493 10493 10492 10493 10493 10492 10491 10491 10491 10491
10611 10609 10608 10606 10605 10603 10602 10602 10601 10600 10597 10594 10593 10591 10589 10587 10585 10583 10582 10580 10578 10576 10574 10572 10570 10568 10567 10566 10565 10564 10563 10563 10564 10563 10562 10561 10561 10561 10560 10558 10557 10556 10554 10552 10550 10548 10546 10544 10541 10538 10534 10530 10526 10523 10519 10517 10514 10512 10509 10507 10504 10503 10501 10499 10498 10497 10496 10496 10495 10494 10493 10493 10492 10492 10492 10491 10491 10490 10490 10490 10490 10490 10489 10489 10489 10489
10609 10607 10606 10605 10603 10601 10599 10599 10599 10599 10596 10593 10591 10590 10588 10586 10583 10581 10580 10579 10577 10575 10573 10571 10569 10567 10565 10563 10562 10561 10560 10559 10559 10558 10557 10558 10558 10557 10556 10555 10554 10553 10552 10550 10548 10547 10545 10543 10540 10537 10534 10531 10527 10523 10519 10516 10513 10511 10508 10506 10503 10501 10499 10497 10496 10495 10494 10493 10493 10492 10491 10491 10490 10490 10489 10489 10489 10488 10488 10488 10488 10488 10487 10487 10487 10487
10608 10605 10603 10602 10601 10599 10597 10596 10597 10597 10595 10592 10590 10589 10588 10586 10583 10580 10578 10576 10575 10573 10571 10569 10567 10565 10563 10561 10560 10558 10557 10556 10555 10554 10553 10554 10554 10553 10553 10552 10551 10550 10550 10548 10546 10545 10543 10542 10540 10537 10534 10531 10528 10524 10520 10516 10513 10510 10507 10505 10502 10500 10498 10496 10495 10493 10492 10491 10490 10490 10489 10489 10488 10488 10488 10487 10487 10486 10486 10486 10486 10486 10485 10485 10484 10484
10605 10604 10602 10600 10598 10597 10594 10592 10593 10594 10593 10591 10589 10586 10586 10585 10583 10579 10577 10575 10572 10571 10569 10567 10565 10563 10562 10560 10558 10556 10555 10553 10552 10550 10549 10549 10550 10549 10549 10548 10548 10547 10547 10546 10544 10542 10541 10540 10538 10536 10534 10531 10528 10524 10521 10517 10514 10510 10507 10504 10502 10499 10497 10495 10493 10492 10490 10489 10488 10488 10487 10487 10486 10486 10486 10485 10485 10485 10484 10484 10484 10484 10483 10483 10482 10482
10602 10601 10599 10597 10596 10595 10592 10590 10591 10592 10590 10589 10587 10584 10583 10582 10581 10579 10577 10574 10572 10569 10567 10566 10564 10562 10560 10558 10556 10554 10552 10551 10549 10547 10546 10545 10545 10545 10544 10544 10544 10543 10544 10544 10542 10540 10539 10537 10536 10534 10532 10530 10527 10524 10521 10518 10515 10511 10508 10505 10502 10499 10497 10495 10493 10491 10489 10488 10487 10486 10485 10485 10484 10484 10484 10483 10483 10483 10482 10482 10481 10481 10481 10480 10480 10479
10597 10596 10595 10594 10593 10592 10589 10587 10587 10589 10588 10586 10585 10583 10580 10579 10578 10576 10575 10573 10571 10569 10566 10564 10562 10560 10558 10557 10555 10552 10550 10548 10546 10544 10542 10542 10541 10541 10540 10540 10539 10539 10541 10541 10540 10538 10537 10536 10534 10532 10531 10529 10527 10524 10522 10519 10516 10512 10509 10506 10503 10500 10497 10495 10493 10490 10489 10487 10486 10485 10484 10483 10483 10482 10482 10481 10481 10481 10480 10480 10479 10479 10478 10478 10477 10477
10593 10592 10591 10590 10589 10588 10585 10583 10583 10584 10584 10583 10583 10581 10579 10577 10576 10574 10572 10570 10569 10567 10564 10562 10560 10558 10556 10555 10553 10551 10548 10546 10544 10542 10540 10538 10538 10537 10536 10536 10535 10535 10536 10538 10537 10536 10535 10534 10532 10531 10530 10528 10526 10524 10521 10519 10516 10513 10510 10507 10504 10501 10498 10495 10493 10491 10489 10487 10486 10485 10484 10483 10482 10481 10481 10480 10480 10479 10479 10478 10477 10477 10476 10476 10475 10475
10589 10588 10587 10586 10585 10584 10582 10580 10580 10580 10579 10579 10580 10579 10577 10575 10574 10572 10569 10567 10565 10563 10561 10559 10557 10555 10554 10552 10551 10549 10547 10544 10542 10540 10538 10536 10535 10534 10533 10533 10532 10532 10532 10533 10534 10533 10532 10531 10530 10529 10528 10526 10525 10523 10521 10518 10516 10513 10510 10507 10505 10502 10499 10496 10493 10491 10490 10488 10487 10485 10484 10483 10482 10481 10481 10480 10479 10478 10477 10477 10476 10476 10475 10474 10473 10473
10585 10585 10584 10582 10581 10580 10578 10577 10576 10576 10575 10575 10575 10575 10574 10572 10571 10569 10567 10565 10563 10561 10559 10557 10555 10553 10551 10550 10549 10547 10546 10543 10541 10538 10536 10534 10532 10531 10530 10529 10529 10529 10529 10529 10530 10530 10529 10528 10527 10526 10525 10524 10523 10521 10519 10517 10515 10512 10510 10508 10505 10502 10499 10497 10494 10492 10490 10488 10487 10486 10484 10483 10482 10481 10480 10479 10478 10477 10476 10476 10475 10475 10474 10474 10473 10472
10581 10581 10580 10579 10577 10575 10574 10573 10573 10571 10570 10570 10571 10570 10569 10568 10567 10566 10565 10563 10561 10559 10557 10555 10552 10550 10548 10547 10546 10544 10543 10542 10540 10537 10534 10532 10530 10528 10527 10526 10525 10525 10525 10526 10526 10526 10526 10525 10525 10524 10522 10522 10520 10519 10517 10516 10513 10511 10509 10507 10505 10503 10500 10497 10495 10492 10490 10488 10487 10485 10484 10483 10482 10481 10479 10478 10477 10476 10476 10475 10475 10474 10474 10473 10472 10471
10577 10577 10576 10575 10574 10571 10569 10568 10568 10567 10565 10564 10565 10566 10565 10564 10563 10562 10561 10560 10558 10556 10554 10552 10550 10548 10546 10544 10543 10541 10540 10538 10537 10536 10533 10531 10529 10526 10524 10522 10521 10521 10521 10521 10522 10522 10522 10522 10521 10521 10520 10519 10518 10516 10515 10513 10512 10510 10508 10506 10504 10502 10500 10497 10495 10493 10491 10489 10487 10486 10484 10483 10482 10481 10479 10478 10477 10477 10476 10475 10475 10474 10473 10473 10472 10471
10574 10574 10572 10571 10570 10568 10564 10564 10564 10563 10561 10558 10558 10560 10560 10559 10558 10558 10556 10555 10554 10553 10551 10549 10547 10546 10544 10542 10540 10538 10537 10536 10534 10532 10531 10529 10527 10525 10522 10520 10518 10517 10517 10517 10517 10518 10518 10518 10517 10517 10516 10515 10514 10513 10512 10511 10509 10508 10506 10504 10502 10500 10499 10497 10495 10493 10491 10489 10488 10486 10485 10484 10483 10482 10480 10479 10478 10477 10476 10475 10474 10474 10473 10472 10471 10470
10571 10571 10569 10568 10567 10565 10561 10560 10561 10560 10557 10555 10554 10554 10555 10554 10554 10554 10553 10552 10550 10549 10548 10546 10544 10543 10541 10539 10537 10535 10534 10533 10531 10529 10528 10526 10525 10523 10521 10518 10515 10513 10512 10513 10513 10513 10513 10513 10513 10513 10513 10512 10511 10510 10509 10508 10507 10505 10504 10502 10500 10499 10497 10495 10494 10492 10490 10489 10487 10486 10485 10484 10483 10482 10481 10479 10478 10477 10476 10475 10474 10473 10472 10471 10470 10469
10567 10566 10564 10564 10564 10561 10558 10557 10558 10556 10553 10551 10550 10550 10550 10550 10550 10549 10549 10549 10547 10546 10545 10543 10541 10539 10538 10537 10535 10533 10531 10530 10528 10527 10525 10523 10522 10520 10519 10517 10514 10510 10508 10508 10508 10508 10508 10508 10508 10508 10508 10508 10507 10507 10506 10505 10504 10503 10501 10499 10498 10496 10495 10494 10492 10491 10489 10488 10487 10485 10484 10483 10482 10481 10480 10479 10478 10476 10475 10474 10472 10471 10470 10469 10468 10467
10561 10560 10559 10560 10559 10557 10554 10553 10554 10552 10549 10546 10546 10546 10546 10546 10546 10545 10544 10544 10543 10542 10541 10540 10537 10535 10534 10533 10532 10531 10529 10527 10526 10524 10522 10520 10519 10517 10516 10514 10512 10509 10506 10504 10503 10504 10504 10503 10503 10503 10504 10504 10503 10503 10502 10501 10500 10500 10499 10497 10496 10494 10493 10492 10491 10489 10488 10487 10486 10484 10483 10482 10480 10479 10478 10477 10476 10475 10473 10472 10471 10469 10468 10467 10465 10464
10554 10552 10553 10555 10554 10552 10550 10549 10549 10548 10544 10542 10542 10541 10541 10541 10541 10540 10539 10538 10538 10538 10537 10536 10534 10532 10530 10529 10528 10527 10526 10524 10523 10521 10519 10517 10515 10514 10513 10511 10509 10507 10504 10501 10500 10499 10499 10499 10499 10499 10500 10500 10499 10498 10498 10498 10497 10496 10495 10494 10493 10492 10491 10489 10488 10487 10486 10485 10484 10483 10481 10480 10479 10477 10476 10475 10474 10473 10471 10470 10469 10467 10466 10464 10463 10461